FW8222 Weather Reports


time (UTC)temp
F
wind
direction
speed
knots
gust
knots
rain 1hr
in
rain 24hr
in
rain mn
in
humidity
%
barometer
mb
20260906165111 94 134 0.0 0.9 0.00 0.00 0.00 48 1017.8
20260906164610 94 117 1.7 1.7 0.00 0.00 0.00 47 1018.1
20260906164106 94 116 2.6 2.6 0.00 0.00 0.00 47 1018.2
20260906163601 94 89 1.7 2.6 0.00 0.00 0.00 48 1018.0
20260906163057 94 96 2.6 2.6 0.00 0.00 0.00 49 1018.0
20260906162554 94 96 2.6 2.6 0.00 0.00 0.00 49 1018.4
20260906162049 93 17 3.5 4.3 0.00 0.00 0.00 49 1018.4
20260906161544 93 17 3.5 4.3 0.00 0.00 0.00 49 1018.3
20260906161043 0 0.0 0.0 0.00 0.00 0.00 1018.2
20260906160542 92 102 1.7 1.7 0.00 0.00 0.00 51 1018.1
20260906160040 92 102 1.7 1.7 0.00 0.00 0.00 51 1018.3
20260906155538 92 102 1.7 1.7 0.00 0.00 0.00 51 1018.2
20260906155034 92 195 1.7 2.6 0.00 0.00 0.00 50 1018.1
20260906154530 92 139 0.9 0.9 0.00 0.00 0.00 49 1018.2
20260906154028 91 83 0.9 1.7 0.00 0.00 0.00 48 1018.2
20260906153527 92 162 0.0 0.9 0.00 0.00 0.00 50 1018.3
20260906153023 92 95 2.6 2.6 0.00 0.00 0.00 49 1018.2
20260906152517 91 142 0.9 0.9 0.00 0.00 0.00 49 1018.1
20260906152016 91 124 0.9 0.9 0.00 0.00 0.00 52 1018.0
20260906151512 90 175 1.7 1.7 0.00 0.00 0.00 53 1017.9
20260906151008 89 176 0.0 0.0 0.00 0.00 0.00 55 1018.1
20260906150502 88 153 0.0 0.0 0.00 0.00 0.00 56 1017.9
20260906150002 89 178 1.7 1.7 0.00 0.00 0.00 58 1018.0
20260906145456 88 157 0.0 0.0 0.00 0.00 0.00 59 1018.0
20260906144955 87 124 0.9 1.7 0.00 0.00 0.00 60 1018.0
20260906144450 87 153 0.9 1.7 0.00 0.00 0.00 60 1017.8
20260906143946 87 155 1.7 1.7 0.00 0.00 0.00 61 1017.8
20260906143441 87 161 0.9 0.9 0.00 0.00 0.00 61 1018.2
20260906142937 86 154 0.0 0.0 0.00 0.00 0.00 63 1017.9
20260906142431 86 132 0.9 0.9 0.00 0.00 0.00 64 1018.0
20260906141926 84 133 0.9 0.9 0.00 0.00 0.00 65 1018.0
20260906141426 84 107 1.7 1.7 0.00 0.00 0.00 64 1018.4
20260906140920 84 108 1.7 2.6 0.00 0.00 0.00 64 1018.1
20260906140414 84 124 0.0 0.9 0.00 0.00 0.00 66 1017.9
20260906135912 0 0.0 0.0 0.00 0.00 0.00 1017.9
20260906135406 81 134 0.0 0.9 0.00 0.00 0.00 70 1017.7
20260906134902 81 134 0.0 0.9 0.00 0.00 0.00 70 1017.8
20260906134357 81 134 0.0 0.9 0.00 0.00 0.00 70 1017.9
20260906133852 0 0.0 0.0 0.00 0.00 0.00 1017.9
20260906133348 0 0.0 0.0 0.00 0.00 0.00 1017.8
20260906132843 83 127 0.0 0.9 0.00 0.00 0.00 69 1017.8
20260906132338 83 127 0.0 0.9 0.00 0.00 0.00 69 1018.0
20260906131834 83 90 0.0 0.0 0.00 0.00 0.00 69 1017.9
20260906131329 81 90 0.0 0.0 0.00 0.00 0.00 69 1017.9
20260906130825 81 90 0.0 0.0 0.00 0.00 0.00 69 1017.7
20260906130324 78 90 0.0 0.0 0.00 0.00 0.00 73 1017.6
20260906125823 78 90 0.0 0.0 0.00 0.00 0.00 77 1017.8
20260906125321 0 0.0 0.0 0.00 0.00 0.00 1017.6
20260906124816 74 91 0.9 0.9 0.00 0.00 0.00 82 1017.6
20260906124312 74 91 0.9 0.9 0.00 0.00 0.00 82 1017.3
20260906123811 74 91 0.9 0.9 0.00 0.00 0.00 82 1017.3
20260906123306 75 91 0.9 0.9 0.00 0.00 0.00 81 1017.2
20260906122806 75 91 0.9 1.7 0.00 0.00 0.00 80 1017.2
20260906122301 74 90 0.0 0.0 0.00 0.00 0.00 82 1017.1
20260906121757 74 90 0.0 0.0 0.00 0.00 0.00 82 1017.0
20260906121253 73 90 0.0 0.0 0.00 0.00 0.00 83 1017.0
20260906120749 72 90 0.0 0.0 0.00 0.00 0.00 85 1017.0
20260906120246 73 90 0.0 0.9 0.00 0.00 0.00 84 1017.0
20260906115741 73 90 0.9 0.9 0.00 0.00 0.00 83 1016.7
20260906115236 73 90 1.7 1.7 0.00 0.00 0.00 82 1016.7
20260906114735 73 89 1.7 1.7 0.00 0.00 0.00 83 1016.7
20260906114231 73 89 2.6 2.6 0.00 0.00 0.00 83 1016.8
20260906113726 72 80 3.5 4.3 0.00 0.00 0.00 85 1016.7
20260906113225 72 80 3.5 4.3 0.00 0.00 0.00 85 1016.7
20260906112724 72 104 2.6 2.6 0.00 0.00 0.00 85 1016.7
20260906112222 72 103 1.7 1.7 0.00 0.00 0.00 86 1016.8
20260906111721 72 103 1.7 1.7 0.00 0.00 0.00 86 1016.5
20260906111215 73 102 2.6 2.6 0.00 0.00 0.00 84 1016.4
20260906110710 73 100 1.7 1.7 0.00 0.00 0.00 84 1016.6
20260906110207 73 95 2.6 2.6 0.00 0.00 0.00 83 1016.4
20260906105706 73 94 1.7 1.7 0.00 0.00 0.00 84 1016.5
20260906105202 72 137 1.7 1.7 0.00 0.00 0.00 85 1016.5
20260906104701 73 133 0.9 0.9 0.00 0.00 0.00 84 1016.4
20260906104201 73 92 1.7 1.7 0.00 0.00 0.00 84 1016.7
20260906103658 72 99 2.6 2.6 0.00 0.00 0.00 85 1016.5
20260906103154 72 131 0.0 0.0 0.00 0.00 0.00 86 1016.4
20260906102649 73 130 0.0 0.9 0.00 0.00 0.00 85 1016.3
20260906102143 73 130 0.0 0.0 0.00 0.00 0.00 83 1016.4
20260906101642 73 130 0.0 0.9 0.00 0.00 0.00 84 1016.5
20260906101137 73 130 0.9 0.9 0.00 0.00 0.00 83 1016.5
20260906100633 73 130 0.0 0.0 0.00 0.00 0.00 82 1016.3
20260906100127 73 130 0.9 0.9 0.00 0.00 0.00 82 1016.3
20260906095622 73 130 0.9 0.9 0.00 0.00 0.00 82 1016.6
20260906095118 74 130 0.9 1.7 0.00 0.00 0.00 81 1016.5
20260906094616 74 130 0.9 0.9 0.00 0.00 0.00 80 1016.4
20260906094112 74 130 0.9 0.9 0.00 0.00 0.00 80 1016.4
20260906093608 74 130 0.9 0.9 0.00 0.00 0.00 80 1016.3
20260906093103 74 129 0.9 0.9 0.00 0.00 0.00 79 1016.3
20260906092558 75 138 0.0 0.0 0.00 0.00 0.00 79 1016.2
20260906092053 75 138 0.0 0.0 0.00 0.00 0.00 79 1016.4
20260906091549 75 138 0.9 0.9 0.00 0.00 0.00 78 1016.2
20260906091045 75 138 0.0 0.9 0.00 0.00 0.00 78 1016.3
20260906090545 75 140 0.0 0.9 0.00 0.00 0.00 79 1016.3
20260906090040 75 147 0.0 0.0 0.00 0.00 0.00 79 1016.3
20260906085539 75 121 0.0 0.9 0.00 0.00 0.00 78 1016.1
20260906085038 75 120 1.7 1.7 0.00 0.00 0.00 78 1016.2
20260906084534 75 118 1.7 2.6 0.00 0.00 0.00 78 1016.2
20260906084032 75 163 0.9 0.9 0.00 0.00 0.00 77 1016.1
20260906083528 75 148 0.0 0.0 0.00 0.00 0.00 77 1015.9
20260906083027 76 148 0.0 0.0 0.00 0.00 0.00 76 1016.1
20260906082522 76 148 0.0 0.9 0.00 0.00 0.00 76 1016.1
20260906082018 75 87 2.6 2.6 0.00 0.00 0.00 77 1016.1
20260906081514 75 145 0.9 0.9 0.00 0.00 0.00 77 1016.1
20260906081010 76 133 0.9 0.9 0.00 0.00 0.00 77 1015.9
20260906080506 76 112 1.7 1.7 0.00 0.00 0.00 74 1015.9
20260906080001 76 99 2.6 2.6 0.00 0.00 0.00 74 1016.1
20260906075455 76 109 2.6 2.6 0.00 0.00 0.00 74 1015.8
20260906074950 77 102 2.6 2.6 0.00 0.00 0.00 73 1015.9
20260906074445 77 131 1.7 1.7 0.00 0.00 0.00 71 1016.1
20260906073943 77 132 0.9 1.7 0.00 0.00 0.00 71 1016.2
20260906073438 78 132 0.9 1.7 0.00 0.00 0.00 69 1016.1
20260906072935 79 132 0.9 1.7 0.00 0.00 0.00 68 1015.7
20260906072430 78 134 1.7 1.7 0.00 0.00 0.00 68 1016.4
20260906071926 79 131 0.9 0.9 0.00 0.00 0.00 66 1016.1
20260906071421 79 131 0.9 0.9 0.00 0.00 0.00 66 1016.2
20260906070917 80 127 0.9 0.9 0.00 0.00 0.00 66 1016.1
20260906070413 80 100 1.7 1.7 0.00 0.00 0.00 66 1016.1
20260906065909 80 90 3.5 4.3 0.00 0.00 0.00 66 1016.2
20260906065402 80 88 3.5 4.3 0.00 0.00 0.00 65 1015.9
20260906064859 80 88 4.3 4.3 0.00 0.00 0.00 64 1016.6
20260906064355 80 60 5.2 6.1 0.00 0.00 0.00 65 1016.4
20260906063854 80 76 4.3 4.3 0.00 0.00 0.00 66 1016.5
20260906063350 80 76 4.3 5.2 0.00 0.00 0.00 65 1016.4
20260906062845 81 64 3.5 4.3 0.00 0.00 0.00 65 1016.5
20260906062344 81 61 4.3 5.2 0.00 0.00 0.00 64 1016.4
20260906061840 81 48 6.1 7.0 0.00 0.00 0.00 64 1016.2
20260906061336 81 52 4.3 5.2 0.00 0.00 0.00 63 1016.3
20260906060830 80 66 4.3 5.2 0.00 0.00 0.00 64 1016.3
20260906060329 80 61 4.3 5.2 0.00 0.00 0.00 65 1016.1
20260906055824 80 55 3.5 4.3 0.00 0.00 0.00 65 1016.2
20260906055319 80 58 4.3 4.3 0.00 0.00 0.00 65 1016.4
20260906054815 80 54 4.3 4.3 0.00 0.00 0.00 65 1016.3
20260906054310 80 63 4.3 5.2 0.00 0.00 0.00 65 1016.5
20260906053806 80 49 4.3 4.3 0.00 0.00 0.00 64 1016.4
20260906053301 81 77 3.5 4.3 0.00 0.00 0.00 64 1016.4
20260906052756 81 66 4.3 5.2 0.00 0.00 0.00 63 1016.2
20260906052253 81 54 4.3 4.3 0.00 0.00 0.00 63 1016.2
20260906051750 81 63 4.3 5.2 0.00 0.00 0.00 63 1016.3
20260906051249 80 63 3.5 4.3 0.00 0.00 0.00 65 1016.1
20260906050744 80 62 3.5 4.3 0.00 0.00 0.00 65 1016.2
20260906050239 80 72 3.5 5.2 0.00 0.00 0.00 65 1016.2
20260906045738 80 71 3.5 4.3 0.00 0.00 0.00 65 1016.2
20260906045233 80 63 5.2 6.1 0.00 0.00 0.00 65 1016.2
20260906044729 80 54 4.3 5.2 0.00 0.00 0.00 65 1016.2
20260906044224 80 48 5.2 6.1 0.00 0.00 0.00 66 1016.3
20260906043720 80 68 4.3 5.2 0.00 0.00 0.00 66 1016.2
20260906043216 80 64 5.2 5.2 0.00 0.00 0.00 65 1016.2
20260906042715 81 66 3.5 4.3 0.00 0.00 0.00 65 1016.3
20260906042214 81 73 3.5 4.3 0.00 0.00 0.00 65 1016.3
20260906041710 81 56 4.3 4.3 0.00 0.00 0.00 65 1016.2
20260906041205 81 61 3.5 4.3 0.00 0.00 0.00 64 1016.2
20260906040701 81 79 2.6 2.6 0.00 0.00 0.00 64 1016.3
20260906040156 81 60 4.3 4.3 0.00 0.00 0.00 63 1016.3
20260906035651 82 62 3.5 4.3 0.00 0.00 0.00 62 1016.2
20260906035147 82 81 2.6 2.6 0.00 0.00 0.00 61 1016.1
20260906034642 82 66 2.6 2.6 0.00 0.00 0.00 60 1016.2
20260906034142 82 68 3.5 4.3 0.00 0.00 0.00 60 1016.3
20260906033637 82 72 3.5 4.3 0.00 0.00 0.00 61 1016.3
20260906033132 82 98 2.6 2.6 0.00 0.00 0.00 62 1016.4
20260906032629 83 83 3.5 4.3 0.00 0.00 0.00 61 1016.2
20260906032128 83 61 4.3 4.3 0.00 0.00 0.00 61 1016.2
20260906031624 83 88 3.5 4.3 0.00 0.00 0.00 60 1015.8
20260906031119 83 85 2.6 4.3 0.00 0.00 0.00 60 1016.2
20260906030618 84 64 3.5 4.3 0.00 0.00 0.00 58 1016.1
20260906030114 84 62 4.3 5.2 0.00 0.00 0.00 58 1015.9
20260906025613 84 75 3.5 4.3 0.00 0.00 0.00 58 1016.1
20260906025112 84 65 3.5 5.2 0.00 0.00 0.00 57 1015.9
20260906024607 85 69 2.6 4.3 0.00 0.00 0.00 56 1015.9
20260906024101 85 63 4.3 5.2 0.00 0.00 0.00 56 1015.9
20260906023557 85 58 3.5 4.3 0.00 0.00 0.00 56 1015.7
20260906023051 85 67 2.6 2.6 0.00 0.00 0.00 55 1015.8
20260906022547 85 62 3.5 4.3 0.00 0.00 0.00 56 1015.7
20260906022042 85 81 3.5 4.3 0.00 0.00 0.00 56 1015.8
20260906021538 85 100 0.9 1.7 0.00 0.00 0.00 56 1015.8
20260906021036 85 81 2.6 2.6 0.00 0.00 0.00 56 1015.6
20260906020531 86 66 4.3 4.3 0.00 0.00 0.00 56 1015.5
20260906020030 86 91 3.5 4.3 0.00 0.00 0.00 54 1015.4
20260906015529 86 72 3.5 5.2 0.00 0.00 0.00 54 1015.6
20260906015024 86 63 4.3 4.3 0.00 0.00 0.00 54 1015.2
20260906014519 87 77 2.6 2.6 0.00 0.00 0.00 53 1015.1
20260906014015 87 123 1.7 1.7 0.00 0.00 0.00 54 1015.0
20260906013510 87 85 1.7 1.7 0.00 0.00 0.00 53 1014.9
20260906013006 88 104 1.7 1.7 0.00 0.00 0.00 53 1015.2
20260906012501 88 40 2.6 2.6 0.00 0.00 0.00 52 1015.2
20260906012000 88 141 0.9 1.7 0.00 0.00 0.00 52 1015.0
20260906011456 88 123 2.6 2.6 0.00 0.00 0.00 53 1015.1
20260906010950 88 45 2.6 2.6 0.00 0.00 0.00 53 1014.8
20260906010446 88 68 3.5 4.3 0.00 0.00 0.00 53 1015.0
20260906005943 89 125 0.0 0.9 0.00 0.00 0.00 53 1014.8
20260906005442 89 125 0.0 0.9 0.00 0.00 0.00 52 1014.8
20260906004940 89 114 1.7 1.7 0.00 0.00 0.00 52 1014.8
20260906004434 89 60 3.5 4.3 0.00 0.00 0.00 53 1015.1
20260906003930 89 58 2.6 2.6 0.00 0.00 0.00 54 1014.9
20260906003425 90 233 3.5 4.3 0.00 0.00 0.00 54 1015.0
20260906002920 92 14 3.5 4.3 0.00 0.00 0.00 53 1014.9
20260906002420 95 172 1.7 2.6 0.00 0.00 0.00 43 1014.8
20260906001915 96 183 0.9 0.9 0.00 0.00 0.00 42 1014.5
20260906001411 97 183 0.0 0.0 0.00 0.00 0.00 42 1014.6
20260906000910 98 183 0.0 0.0 0.00 0.00 0.00 45 1014.6
20260906000406 98 183 0.0 0.0 0.00 0.00 0.00 44 1014.6
20260905235855 98 183 0.0 0.0 0.00 0.00 0.00 43 1014.8
20260905235349 98 182 0.0 0.0 0.00 0.00 0.00 41 1014.7
20260905234844 98 182 0.0 0.0 0.00 0.00 0.00 41 1014.7
20260905234339 99 185 0.9 0.9 0.00 0.00 0.00 39 1014.7
20260905233835 99 185 0.9 0.9 0.00 0.00 0.00 39 1014.7
20260905233329 99 179 0.0 0.9 0.00 0.00 0.00 38 1014.6
20260905232828 99 178 0.0 0.0 0.00 0.00 0.00 40 1014.7
20260905232325 99 166 0.9 0.9 0.00 0.00 0.00 37 1014.7
20260905231820 99 190 0.9 1.7 0.00 0.00 0.00 38 1014.5
20260905231315 98 180 0.9 0.9 0.00 0.00 0.00 37 1014.6
20260905230812 98 188 2.6 2.6 0.00 0.00 0.00 38 1014.6
20260905230310 98 244 3.5 4.3 0.00 0.00 0.00 37 1014.7
20260905225809 98 175 2.6 2.6 0.00 0.00 0.00 38 1014.7
20260905225306 98 199 3.5 4.3 0.00 0.00 0.00 37 1014.6
20260905224804 97 173 1.7 1.7 0.00 0.00 0.00 38 1014.6
20260905224300 98 249 4.3 5.2 0.00 0.00 0.00 38 1014.5
20260905223755 99 279 3.5 4.3 0.00 0.00 0.00 37 1014.4
20260905223252 99 278 2.6 2.6 0.00 0.00 0.00 37 1014.7
20260905222747 99 247 2.6 2.6 0.00 0.00 0.00 37 1014.5
20260905222246 98 125 1.7 1.7 0.00 0.00 0.00 37 1014.6
20260905221742 99 285 3.5 4.3 0.00 0.00 0.00 37 1014.6
20260905221239 100 103 1.7 1.7 0.00 0.00 0.00 36 1014.5
20260905220734 98 181 1.7 1.7 0.00 0.00 0.00 36 1014.7
20260905220230 98 142 1.7 1.7 0.00 0.00 0.00 37 1014.8
20260905215730 98 134 2.6 4.3 0.00 0.00 0.00 37 1014.6
20260905215226 100 159 0.9 0.9 0.00 0.00 0.00 36 1014.8
20260905214721 99 126 0.0 1.7 0.00 0.00 0.00 35 1014.8
20260905214217 99 126 0.0 1.7 0.00 0.00 0.00 35 1014.8
20260905213712 99 157 0.0 0.0 0.00 0.00 0.00 34 1014.9
20260905213208 99 157 0.0 0.0 0.00 0.00 0.00 34 1015.0
20260905212703 99 115 1.7 1.7 0.00 0.00 0.00 36 1014.8
20260905212202 99 48 4.3 6.1 0.00 0.00 0.00 35 1015.0
20260905211656 100 139 1.7 1.7 0.00 0.00 0.00 35 1014.9
20260905211152 100 139 1.7 1.7 0.00 0.00 0.00 35 1015.2
20260905210649 99 144 1.7 1.7 0.00 0.00 0.00 36 1015.4
20260905210149 99 144 1.7 1.7 0.00 0.00 0.00 36 1015.3
20260905205647 99 144 1.7 1.7 0.00 0.00 0.00 36 1015.3
20260905205147 98 157 0.9 0.9 0.00 0.00 0.00 37 1015.4
20260905204647 98 157 0.9 0.9 0.00 0.00 0.00 37 1015.4
20260905204142 98 157 0.9 0.9 0.00 0.00 0.00 37 1015.5
20260905203637 98 326 2.6 4.3 0.00 0.00 0.00 38 1015.5
20260905203132 0 0.0 0.0 0.00 0.00 0.00 1015.9
20260905202628 98 172 0.9 1.7 0.00 0.00 0.00 37 1015.7
20260905202123 98 172 0.9 1.7 0.00 0.00 0.00 37 1015.8
20260905201619 98 198 2.6 4.3 0.00 0.00 0.00 37 1016.1
20260905201118 97 288 3.5 4.3 0.00 0.00 0.00 38 1016.2
20260905200614 98 84 1.7 2.6 0.00 0.00 0.00 38 1016.1
20260905200109 97 178 0.0 0.9 0.00 0.00 0.00 38 1016.3
20260905195607 97 273 4.3 5.2 0.00 0.00 0.00 38 1016.1
20260905195103 97 286 4.3 6.1 0.00 0.00 0.00 39 1016.2
20260905194603 97 299 7.0 7.0 0.00 0.00 0.00 39 1016.5
20260905194102 97 60 3.5 5.2 0.00 0.00 0.00 38 1016.5
20260905193557 97 174 1.7 2.6 0.00 0.00 0.00 41 1016.4
20260905193052 97 176 0.0 0.9 0.00 0.00 0.00 40 1016.5
20260905192548 97 192 3.5 5.2 0.00 0.00 0.00 42 1016.5
20260905192044 96 213 3.5 5.2 0.00 0.00 0.00 41 1016.7
20260905191542 94 72 2.6 2.6 0.00 0.00 0.00 43 1016.8
20260905191042 94 28 4.3 5.2 0.00 0.00 0.00 44 1016.8
20260905190540 96 77 5.2 7.0 0.00 0.00 0.00 42 1016.8
20260905190034 96 172 1.7 1.7 0.00 0.00 0.00 42 1017.0
20260905185533 97 98 2.6 4.3 0.00 0.00 0.00 41 1017.0
20260905185033 95 170 4.3 5.2 0.00 0.00 0.00 42 1017.2
20260905184533 95 170 4.3 5.2 0.00 0.00 0.00 42 1017.3
20260905184031 95 190 3.5 4.3 0.00 0.00 0.00 42 1017.3
20260905183526 96 335 3.5 4.3 0.00 0.00 0.00 43 1017.3
20260905183021 96 196 2.6 4.3 0.00 0.00 0.00 43 1017.1
20260905182520 97 3 4.3 5.2 0.00 0.00 0.00 41 1017.4
20260905182015 95 193 2.6 2.6 0.00 0.00 0.00 41 1017.6
20260905181510 95 166 0.0 0.9 0.00 0.00 0.00 41 1017.6
20260905181009 95 238 3.5 5.2 0.00 0.00 0.00 42 1017.7
20260905180504 95 90 2.6 2.6 0.00 0.00 0.00 42 1017.6
20260905175959 95 243 4.3 5.2 0.00 0.00 0.00 44 1017.7
20260905175458 94 174 0.9 0.9 0.00 0.00 0.00 43 1017.8
20260905174954 95 240 3.5 4.3 0.00 0.00 0.00 44 1017.9
20260905174449 95 240 3.5 4.3 0.00 0.00 0.00 44 1017.9
20260905173945 95 314 7.0 7.0 0.00 0.00 0.00 43 1018.0
20260905173441 94 261 5.2 6.1 0.00 0.00 0.00 46 1018.1
20260905172936 94 261 5.2 6.1 0.00 0.00 0.00 46 1018.0
20260905172434 94 341 6.1 7.0 0.00 0.00 0.00 46 1018.1
20260905171930 93 199 2.6 4.3 0.00 0.00 0.00 47 1018.3
20260905171427 93 179 0.9 1.7 0.00 0.00 0.00 48 1018.2
20260905170923 92 228 4.3 5.2 0.00 0.00 0.00 49 1018.1
20260905170419 92 175 5.2 6.1 0.00 0.00 0.00 50 1018.4
20260905165918 92 175 5.2 6.1 0.00 0.00 0.00 50 1018.6